SHT22A EGLL-EGJB

Flight info

Callsign SHT22A
Flight time 0h 29m
Altitude 18000
Route GASGU N514 EVTES N621 SAM N63 LELNA
Aircraft A319/M-SDE3FGHIRWY/LB1

Departure

Time 2026-04-25 09:00
Airport London Heathrow Airport (EGLL)

Arrival

Time 2026-04-25 09:29
Airport Guernsey Airport (EGJB)
Time Latitude Longitude Altitude Speed Heading
2026-04-25 08:16 51.47271 -0.48588 89 ft 0 kts 269°
2026-04-25 08:43 51.47271 -0.48559 87 ft 4 kts 269°
2026-04-25 08:43 51.47271 -0.48524 89 ft 2 kts 270°
2026-04-25 08:43 51.47275 -0.48488 89 ft 4 kts 227°
2026-04-25 08:43 51.47295 -0.48473 89 ft 3 kts 179°
2026-04-25 08:44 51.47310 -0.48473 88 ft 0 kts 179°
2026-04-25 08:50 51.47306 -0.48473 87 ft 2 kts 179°
2026-04-25 08:51 51.47287 -0.48473 90 ft 4 kts 179°
2026-04-25 08:51 51.47222 -0.48472 86 ft 13 kts 179°
2026-04-25 08:51 51.47123 -0.48471 86 ft 16 kts 179°
2026-04-25 08:51 51.47005 -0.48469 86 ft 18 kts 180°
2026-04-25 08:52 51.46889 -0.48468 86 ft 17 kts 180°
2026-04-25 08:52 51.46804 -0.48468 86 ft 12 kts 180°
2026-04-25 08:52 51.46710 -0.48467 86 ft 15 kts 180°
2026-04-25 08:52 51.46650 -0.48356 86 ft 16 kts 90°
2026-04-25 08:53 51.46653 -0.48162 86 ft 19 kts 90°
2026-04-25 08:53 51.46654 -0.47939 86 ft 21 kts 89°
2026-04-25 08:53 51.46655 -0.47744 86 ft 18 kts 90°
2026-04-25 08:53 51.46655 -0.47551 86 ft 16 kts 90°
2026-04-25 08:54 51.46656 -0.47357 86 ft 19 kts 89°
2026-04-25 08:54 51.46658 -0.47133 86 ft 21 kts 90°
2026-04-25 08:54 51.46657 -0.46905 87 ft 16 kts 90°
2026-04-25 08:54 51.46657 -0.46707 87 ft 19 kts 90°
2026-04-25 08:55 51.46659 -0.46479 88 ft 22 kts 89°
2026-04-25 08:55 51.46660 -0.46250 87 ft 20 kts 90°
2026-04-25 08:55 51.46660 -0.46042 87 ft 19 kts 89°
2026-04-25 08:55 51.46661 -0.45815 86 ft 22 kts 90°
2026-04-25 08:56 51.46662 -0.45559 86 ft 24 kts 89°
2026-04-25 08:56 51.46663 -0.45314 86 ft 22 kts 90°
2026-04-25 08:56 51.46663 -0.45102 86 ft 19 kts 89°
2026-04-25 08:56 51.46664 -0.44871 87 ft 22 kts 90°
2026-04-25 08:57 51.46664 -0.44657 87 ft 20 kts 90°
2026-04-25 08:57 51.46665 -0.44422 86 ft 22 kts 90°
2026-04-25 08:57 51.46666 -0.44242 86 ft 16 kts 89°
2026-04-25 08:57 51.46667 -0.44123 86 ft 8 kts 89°
2026-04-25 08:58 51.46629 -0.44053 89 ft 13 kts 171°
2026-04-25 08:58 51.46535 -0.44051 86 ft 12 kts 180°
2026-04-25 08:58 51.46492 -0.44152 86 ft 14 kts 272°
2026-04-25 08:58 51.46493 -0.44217 86 ft 0 kts 270°
2026-04-25 08:59 51.46493 -0.44228 86 ft 6 kts 270°
2026-04-25 08:59 51.46491 -0.44590 88 ft 64 kts 269°
2026-04-25 08:59 51.46488 -0.45221 88 ft 105 kts 269°
2026-04-25 08:59 51.46477 -0.46720 91 ft 159 kts 269°
2026-04-25 09:00 51.46479 -0.48631 537 ft 173 kts 269°
2026-04-25 09:00 51.46478 -0.50569 1302 ft 174 kts 269°
2026-04-25 09:00 51.46450 -0.52589 1778 ft 192 kts 268°
2026-04-25 09:00 51.46415 -0.54858 2144 ft 216 kts 268°
2026-04-25 09:01 51.46377 -0.57406 2606 ft 241 kts 268°
2026-04-25 09:01 51.46341 -0.60225 3287 ft 261 kts 269°
2026-04-25 09:01 51.46161 -0.63145 4242 ft 267 kts 257°
2026-04-25 09:01 51.45735 -0.66057 5306 ft 271 kts 256°
2026-04-25 09:02 51.45478 -0.69168 5884 ft 275 kts 268°
2026-04-25 09:02 51.45435 -0.72158 6910 ft 274 kts 269°
2026-04-25 09:02 51.45402 -0.75222 7899 ft 276 kts 269°
2026-04-25 09:02 51.45303 -0.78293 8834 ft 279 kts 261°
2026-04-25 09:03 51.44662 -0.81261 9755 ft 284 kts 241°
2026-04-25 09:03 51.43399 -0.83781 10512 ft 297 kts 223°
2026-04-25 09:03 51.41798 -0.86073 10815 ft 321 kts 222°
2026-04-25 09:03 51.39945 -0.88284 11043 ft 344 kts 214°
2026-04-25 09:04 51.37902 -0.90447 11562 ft 356 kts 214°
2026-04-25 09:04 51.35830 -0.92639 12264 ft 360 kts 214°
2026-04-25 09:04 51.33736 -0.94901 13001 ft 364 kts 214°
2026-04-25 09:04 51.31618 -0.97230 13727 ft 367 kts 215°
2026-04-25 09:05 51.29504 -0.99569 14409 ft 370 kts 215°
2026-04-25 09:05 51.27364 -1.01903 14967 ft 374 kts 214°
2026-04-25 09:05 51.25201 -1.04182 15173 ft 374 kts 213°
2026-04-25 09:05 51.23006 -1.06438 15217 ft 374 kts 213°
2026-04-25 09:06 51.20826 -1.08656 15221 ft 373 kts 213°
2026-04-25 09:06 51.18618 -1.10897 15387 ft 378 kts 213°
2026-04-25 09:06 51.16400 -1.13154 16058 ft 378 kts 213°
2026-04-25 09:06 51.14183 -1.15417 16709 ft 381 kts 213°
2026-04-25 09:07 51.11950 -1.17707 17387 ft 384 kts 213°
2026-04-25 09:07 51.09697 -1.20020 17996 ft 387 kts 213°
2026-04-25 09:07 51.07418 -1.22358 18182 ft 387 kts 213°
2026-04-25 09:07 51.05102 -1.24732 18231 ft 403 kts 213°
2026-04-25 09:08 51.02706 -1.27186 18217 ft 418 kts 213°
2026-04-25 09:08 51.00240 -1.29708 18222 ft 423 kts 213°
2026-04-25 09:08 50.97757 -1.32239 18219 ft 424 kts 213°
2026-04-25 09:08 50.95252 -1.34704 18216 ft 424 kts 210°
2026-04-25 09:09 50.92625 -1.36820 18222 ft 425 kts 207°
2026-04-25 09:09 50.89984 -1.38925 18219 ft 425 kts 207°
2026-04-25 09:09 50.87344 -1.41034 18223 ft 425 kts 208°
2026-04-25 09:09 50.84665 -1.43172 18222 ft 425 kts 208°
2026-04-25 09:10 50.82024 -1.45273 18224 ft 425 kts 207°
2026-04-25 09:10 50.79391 -1.47365 18225 ft 425 kts 208°
2026-04-25 09:10 50.76749 -1.49464 18226 ft 425 kts 208°
2026-04-25 09:10 50.74106 -1.51568 18225 ft 425 kts 208°
2026-04-25 09:11 50.68831 -1.55753 18226 ft 425 kts 207°
2026-04-25 09:11 50.66192 -1.57839 18224 ft 425 kts 207°
2026-04-25 09:11 50.63556 -1.59920 18219 ft 425 kts 207°
2026-04-25 09:12 50.60911 -1.62005 18224 ft 425 kts 207°
2026-04-25 09:12 50.58228 -1.64117 18217 ft 425 kts 207°
2026-04-25 09:12 50.55618 -1.66168 18219 ft 425 kts 207°
2026-04-25 09:12 50.52970 -1.68245 18218 ft 425 kts 207°
2026-04-25 09:13 50.50282 -1.70348 18219 ft 425 kts 207°
2026-04-25 09:13 50.47633 -1.72421 18217 ft 425 kts 207°
2026-04-25 09:13 50.44988 -1.74494 18216 ft 425 kts 207°
2026-04-25 09:13 50.42340 -1.76571 18217 ft 425 kts 207°
2026-04-25 09:14 50.39697 -1.78638 18213 ft 425 kts 207°
2026-04-25 09:14 50.37053 -1.80701 18226 ft 424 kts 207°
2026-04-25 09:14 50.34407 -1.82758 18231 ft 424 kts 207°
2026-04-25 09:14 50.31765 -1.84809 18232 ft 423 kts 207°
2026-04-25 09:15 50.29124 -1.86855 18221 ft 424 kts 207°
2026-04-25 09:15 50.26460 -1.88915 18216 ft 424 kts 207°
2026-04-25 09:15 50.23846 -1.90938 18215 ft 424 kts 207°
2026-04-25 09:15 50.21199 -1.92984 18204 ft 424 kts 207°
2026-04-25 09:16 50.18554 -1.95026 18202 ft 424 kts 207°
2026-04-25 09:16 50.15872 -1.97094 18199 ft 424 kts 207°
2026-04-25 09:16 50.13226 -1.99133 18195 ft 424 kts 207°
2026-04-25 09:16 50.10582 -2.01167 18193 ft 425 kts 207°
2026-04-25 09:17 50.05292 -2.05236 17824 ft 419 kts 207°
2026-04-25 09:17 50.02680 -2.07240 16837 ft 418 kts 207°
2026-04-25 09:17 50.00113 -2.09274 16174 ft 408 kts 211°
2026-04-25 09:18 49.97827 -2.11767 15516 ft 399 kts 220°
2026-04-25 09:18 49.95876 -2.14779 14891 ft 393 kts 229°
2026-04-25 09:18 49.94084 -2.17947 14241 ft 387 kts 228°
2026-04-25 09:18 49.92322 -2.21042 13572 ft 381 kts 228°
2026-04-25 09:19 49.90575 -2.24092 12916 ft 374 kts 228°
2026-04-25 09:19 49.88858 -2.27076 12270 ft 367 kts 228°
2026-04-25 09:19 49.87178 -2.29990 11615 ft 361 kts 228°
2026-04-25 09:19 49.85521 -2.32868 11260 ft 348 kts 228°
2026-04-25 09:20 49.83957 -2.35591 11137 ft 330 kts 228°
2026-04-25 09:20 49.82450 -2.38216 11001 ft 315 kts 228°
2026-04-25 09:20 49.81026 -2.40693 10889 ft 301 kts 228°
2026-04-25 09:20 49.79658 -2.43067 10727 ft 291 kts 228°
2026-04-25 09:21 49.78335 -2.45358 10662 ft 287 kts 228°
2026-04-25 09:21 49.76994 -2.47678 10586 ft 286 kts 228°
2026-04-25 09:21 49.75666 -2.49968 10468 ft 285 kts 228°
2026-04-25 09:21 49.74341 -2.52248 10345 ft 285 kts 228°
2026-04-25 09:22 49.73014 -2.54528 10143 ft 286 kts 228°
2026-04-25 09:22 49.71681 -2.56818 9622 ft 291 kts 227°
2026-04-25 09:22 49.70257 -2.59011 9267 ft 288 kts 218°
2026-04-25 09:22 49.68575 -2.60658 8874 ft 286 kts 208°
2026-04-25 09:23 49.66831 -2.62129 8477 ft 286 kts 209°
2026-04-25 09:23 49.65093 -2.63593 8091 ft 285 kts 209°
2026-04-25 09:23 49.63357 -2.65056 7719 ft 283 kts 209°
2026-04-25 09:23 49.61633 -2.66510 7355 ft 282 kts 209°
2026-04-25 09:24 49.59908 -2.67965 6995 ft 281 kts 210°
2026-04-25 09:24 49.58200 -2.69404 6639 ft 280 kts 210°
2026-04-25 09:24 49.56497 -2.70839 6312 ft 277 kts 209°
2026-04-25 09:24 49.54812 -2.72259 5903 ft 276 kts 209°
2026-04-25 09:25 49.53090 -2.73708 5146 ft 288 kts 209°
2026-04-25 09:25 49.51309 -2.75207 4346 ft 294 kts 209°
2026-04-25 09:25 49.49523 -2.76708 3600 ft 292 kts 208°
2026-04-25 09:25 49.47782 -2.78167 3297 ft 274 kts 208°
2026-04-25 09:26 49.46160 -2.79489 3154 ft 254 kts 203°
2026-04-25 09:26 49.45036 -2.79873 3075 ft 239 kts 177°
2026-04-25 09:26 49.43583 -2.79039 2946 ft 219 kts 138°
2026-04-25 09:26 49.42879 -2.77050 2459 ft 214 kts 95°
2026-04-25 09:27 49.43049 -2.74869 2113 ft 201 kts 82°
2026-04-25 09:27 49.43146 -2.72821 1824 ft 182 kts 89°
2026-04-25 09:27 49.43194 -2.71009 1584 ft 156 kts 89°
2026-04-25 09:27 49.43237 -2.69453 1386 ft 137 kts 89°
2026-04-25 09:28 49.43276 -2.68023 1200 ft 130 kts 89°
2026-04-25 09:28 49.43314 -2.66670 1039 ft 128 kts 88°
2026-04-25 09:28 49.43351 -2.65315 850 ft 124 kts 89°
2026-04-25 09:28 49.43389 -2.63996 696 ft 125 kts 88°
2026-04-25 09:29 49.43430 -2.62668 558 ft 124 kts 88°
2026-04-25 09:29 49.43466 -2.61355 380 ft 123 kts 89°
2026-04-25 09:29 49.43494 -2.60263 339 ft 69 kts 87°
2026-04-25 09:29 49.43498 -2.59905 344 ft 15 kts 107°
2026-04-25 09:30 49.43422 -2.59858 336 ft 12 kts 180°
2026-04-25 09:30 49.43356 -2.59844 338 ft 9 kts 148°
2026-04-25 09:30 49.43351 -2.59741 340 ft 12 kts 71°
2026-04-25 09:30 49.43362 -2.59662 340 ft 1 kts 85°
2026-04-25 09:31 49.43357 -2.59632 339 ft 4 kts 124°
2026-04-25 09:31 49.43324 -2.59625 340 ft 6 kts 179°
2026-04-25 09:31 49.43271 -2.59621 340 ft 9 kts 176°
2026-04-25 09:31 49.43254 -2.59619 340 ft 0 kts 177°